Skip Page Navigation
NASA JPL Caltech
NASA Logo - Jet Propulsion Laboratory + View the NASA Portal
+ Center for Near-Earth Object Studies
JPL Home Earth Solar System Stars & Galaxies Technology
JPL Solar System Dynamics
BODIES ORBITS EPHEMERIDES TOOLS PHYSICAL DATA DISCOVERY FAQ SITE MAP
JPL Small-Body Database Browser
Search: [ help ]  
1344 Caubeta (1935 GA)
Classification: Main-belt Asteroid          SPK-ID: 2001344
Ephemeris | Orbit Diagram | Orbital Elements | Mission Design | Physical Parameters | Discovery Circumstances ]

[ show orbit diagram ]
Orbital Elements at Epoch 2459200.5 (2020-Dec-17.0) TDB
Reference: JPL 38 (heliocentric ecliptic J2000)
 Element Value Uncertainty (1-sigma)   Units 
e .1207514725851541 1.4634e-08  
a 2.247264597182254 4.8492e-09 au
q 1.975904087784013 3.245e-08 au
i 5.656349321724481 3.5249e-07 deg
node 60.01939109426887 3.6867e-06 deg
peri 133.5925436789691 5.267e-06 deg
M 161.7262381430673 4.0425e-06 deg
tp 2458647.713121143194
(2019-Jun-13.21312114)
1.3297e-05 TDB
period 1230.494684557039
3.37
3.9828e-06
1.09e-08
d
yr
n .2925652621811974 9.4695e-10 deg/d
Q 2.518625106580494 5.4347e-09 au
  Orbit Determination Parameters
   # obs. used (total)      3412  
   data-arc span      31892 days (87.32 yr)  
   first obs. used      1933-10-20  
   last obs. used      2021-02-12  
   planetary ephem.      DE441  
   SB-pert. ephem.      SB441-N16  
   condition code      0  
   norm. resid. RMS      .38231  
   source      ORB  
   producer      Otto Matic  
   solution date      2021-Apr-12 12:19:08  

Additional Information
 Earth MOID = .97844 au 
 Jupiter MOID = 2.44095 au 
 T_jup = 3.614 
[ show covariance matrix ]

Ephemeris | Orbit Diagram | Orbital Elements | Mission Design | Physical Parameters | Discovery Circumstances ]

Physical Parameter Table
Parameter Symbol Value Units Sigma Reference Notes
absolute magnitude H 12.91   n/a E2021B10  
diameter diameter 5.844 km 0.118 urn:nasa:pds:neowise_diameters_albedos::2.0[mainbelt] (http://adsabs.harvard.edu/abs/2011ApJ...741...68M)  
rotation period rot_per 3.12219 h n/a LCDB (Rev. 2020-October); Warner et al., 2009 Published Reference List:
[Behrend, R. (2009) Observatoire de Geneve web site, http://obswww.unige.ch/~behrend/page_cou.html]
[Pravec, P.; Wolf, M.; Sarounova, L. (2009) http://www.asu.cas.cz/~ppravec/neo.htm]
[Collaborative Asteroid Lightcurve Link (CALL) (2011) http://www.minorplanetobserver.com/DATA/submissions_results.htm]
[Chirony, V.; Galad, A.; Pravec, P. Kusnirak, P.; et al. (2011) Planet. Space Sci. 59, 1482-1489.]
[Behrend, R. (2012) Observatoire de Geneve web site, http://obswww.unige.ch/~behrend/page_cou.html]
[Pravec, P.; Wolf, M.; Sarounova, L. (2012) http://www.asu.cas.cz/~ppravec/neo.htm]
[Waszczak, A.; Chang, C.-K.; Ofeck, E.O.; Laher, F.; et al. (2015) Astron. J. 150, A75.]
[Behrend, R. (2019) Observatoire de Geneve web site, http://obswww.unige.ch/~behrend/page_cou.html]
[Christmann, B.; Pravec, P.; Hornoch, K.; Kucakova, H.; et al. (2019) CBET 4634.]
[Pravec, P.; Wolf, M.; Sarounova, L. (2019) http://www.asu.cas.cz/~ppravec/neo.htm]
geometric albedo albedo 0.392   0.027 urn:nasa:pds:neowise_diameters_albedos::2.0[mainbelt] (http://adsabs.harvard.edu/abs/2011ApJ...741...68M)  

1344 Caubeta (1935 GA)          Discovered 1935-Apr-01 by Boyer, L. at Algiers
Reference: DISCOVERY.DBLast Updated: 2003-08-29

Alternate Designations
 1935 GA = 1933 UC2 = 1957 YT 
Ephemeris | Orbit Diagram | Orbital Elements | Mission Design | Physical Parameters | Discovery Circumstances ]
ABOUT SSD CREDITS/AWARDS PRIVACY/COPYRIGHT GLOSSARY LINKS
FirstGov 2021-May-11 14:36 UT
(server date/time)  
NASA Home Page
Site Manager:   Ryan S. Park
Webmaster  Alan B. Chamberlin